If you wish to contribute or participate in the discussions about articles you are invited to join SKYbrary as a registered user

 Actions

Capitán Aníbal Arab Airport

From SKYbrary Wiki

SLCO /
Revision as of 14:34, 19 July 2017 by Editor1 (talk | contribs)
(diff) ← Older revision | Latest revision (diff) | Newer revision → (diff)
Airport
ICAO: SLCO – IATA: CIJ
Summary
Name Capitán Aníbal Arab Airport
Region South America and Caribbean
Territory Bolivia BO.gif
Location Cobija, Pando
Serving Cobija
Elevation 270.967 m
889 ft
889 ft270.967 m
Type medium airport
Coordinates 11° 2' 25.57" S, 68° 46' 58.70" W
Runways
Designator Length Width Surface ROPS
2/20 2000 m6,561.68 ft
30 m98.425 ft
ASP /


METAR
Observation SLCO 081500Z 32010KT 9999 SCT020 31/24 Q1010
Station Cobija
Date/Time 08 December 2019 15:00:00
Wind direction 320°
Wind speed 10 kts
Lowest cloud amount scattered clouds
Temperature 31°C
Dew point 24°C
Humidity 66%
QNH 1010 hPa
Weather condition n/a

International airport serving the Acre River port city of Cobija, the capital of the Pando Department of Bolivia.

Climatology

Tropical Savanna climate (Köppen climate classification Aw).

Maps

Terrain

Loading map...

Airport Layout

Loading map...


Accidents & Serious Incidents at or in vicinity of SLCO

None on SKYbrary